TimeEST,TemperatureF,Dew PointF,Humidity,Sea Level PressureIn,VisibilityMPH,Wind Direction,Wind SpeedMPH,Gust SpeedMPH,PrecipitationIn,Events,Conditions,WindDirDegrees,DateUTC
12:15 AM,17.6,1.4,49,30.23,7.0,WNW,3.5,-,N/A,Snow,Light Snow,290,2014-01-29 05:15:00
12:35 AM,15.8,6.8,68,30.23,4.0,WSW,3.5,-,N/A,Snow,Light Snow,240,2014-01-29 05:35:00
12:55 AM,15.8,8.6,73,30.23,2.5,West,3.5,-,N/A,Snow,Light Snow,280,2014-01-29 05:55:00
1:15 AM,15.8,8.6,73,30.22,1.8,Calm,Calm,-,N/A,Snow,Light Snow,0,2014-01-29 06:15:00
1:35 AM,14.0,8.6,79,30.21,1.8,Calm,Calm,-,N/A,Snow,Light Snow,0,2014-01-29 06:35:00
1:55 AM,14.0,8.6,79,30.21,1.2,Calm,Calm,-,N/A,Snow,Light Snow,0,2014-01-29 06:55:00
2:15 AM,14.0,10.4,86,30.20,2.0,Calm,Calm,-,N/A,Snow,Light Snow,0,2014-01-29 07:15:00
2:35 AM,14.0,10.4,86,30.20,2.5,Calm,Calm,-,N/A,Snow,Light Snow,0,2014-01-29 07:35:00
2:55 AM,14.0,10.4,86,30.20,2.5,Calm,Calm,-,N/A,Snow,Light Snow,0,2014-01-29 07:55:00
3:15 AM,14.0,10.4,86,30.19,2.0,Calm,Calm,-,N/A,Snow,Light Snow,0,2014-01-29 08:15:00
3:35 AM,14.0,10.4,86,30.18,2.5,Calm,Calm,-,N/A,Snow,Light Snow,0,2014-01-29 08:35:00
3:55 AM,14.0,8.6,79,30.17,2.5,West,3.5,-,N/A,Snow,Light Snow,270,2014-01-29 08:55:00
4:15 AM,14.0,8.6,79,30.17,4.0,WNW,3.5,-,N/A,Snow,Light Snow,290,2014-01-29 09:15:00
4:35 AM,14.0,8.6,79,30.15,4.0,Calm,Calm,-,N/A,Snow,Light Snow,0,2014-01-29 09:35:00
4:55 AM,14.0,8.6,79,30.14,10.0,Calm,Calm,-,N/A,,Overcast,0,2014-01-29 09:55:00
5:15 AM,14.0,8.6,79,30.15,10.0,Calm,Calm,-,N/A,,Overcast,0,2014-01-29 10:15:00
5:35 AM,14.0,6.8,73,30.16,10.0,Calm,Calm,-,N/A,,Scattered Clouds,0,2014-01-29 10:35:00
6:45 AM,12.2,3.2,67,30.16,10.0,NW,4.6,-,N/A,,Mostly Cloudy,310,2014-01-29 11:45:00
7:45 AM,10.4,-0.4,62,30.18,15.0,Calm,Calm,-,N/A,,Mostly Cloudy,0,2014-01-29 12:45:00
8:45 AM,12.2,-4.0,48,30.19,15.0,NW,6.9,-,N/A,,Scattered Clouds,310,2014-01-29 13:45:00
9:45 AM,14.0,-5.8,41,30.19,15.0,WNW,6.9,-,N/A,,Scattered Clouds,300,2014-01-29 14:45:00
10:45 AM,15.8,-7.6,35,30.18,20.0,North,5.8,12.7,N/A,,Partly Cloudy,350,2014-01-29 15:45:00
11:45 AM,17.6,-7.6,32,30.17,20.0,NW,9.2,17.3,N/A,,Partly Cloudy,310,2014-01-29 16:45:00
12:45 PM,19.4,-5.8,33,30.14,20.0,WNW,9.2,-,N/A,,Clear,290,2014-01-29 17:45:00
1:45 PM,21.2,-4.0,33,30.12,10.0,WSW,12.7,-,N/A,,Clear,250,2014-01-29 18:45:00
2:45 PM,21.2,-4.0,33,30.11,20.0,West,15.0,21.9,N/A,,Clear,260,2014-01-29 19:45:00
3:45 PM,21.2,-4.0,33,30.12,20.0,West,12.7,17.3,N/A,,Clear,260,2014-01-29 20:45:00
4:45 PM,21.2,-4.0,33,30.13,20.0,West,11.5,18.4,N/A,,Partly Cloudy,280,2014-01-29 21:45:00
5:45 PM,19.4,-4.0,36,30.18,10.0,West,11.5,-,N/A,,Clear,260,2014-01-29 22:45:00
7:45 PM,17.6,-2.2,42,30.24,10.0,WSW,6.9,-,N/A,,Clear,250,2014-01-30 00:45:00
8:45 PM,15.8,-2.2,45,30.25,10.0,West,9.2,-,N/A,,Clear,260,2014-01-30 01:45:00
9:55 PM,15.8,-4.0,41,30.26,10.0,SW,4.6,-,N/A,,Clear,230,2014-01-30 02:55:00
10:15 PM,14.0,-2.2,49,30.27,10.0,SSW,4.6,-,N/A,,Clear,200,2014-01-30 03:15:00
10:35 PM,10.4,-2.2,57,30.27,10.0,WSW,3.5,-,N/A,,Clear,250,2014-01-30 03:35:00
10:55 PM,10.4,-2.2,57,30.27,10.0,WSW,3.5,-,N/A,,Clear,240,2014-01-30 03:55:00
11:15 PM,14.0,-2.2,49,30.28,10.0,WNW,4.6,-,N/A,,Clear,300,2014-01-30 04:15:00
11:35 PM,17.6,-4.0,38,30.29,10.0,West,4.6,-,N/A,,Clear,270,2014-01-30 04:35:00
11:55 PM,17.6,-4.0,38,30.30,10.0,Calm,Calm,-,N/A,,Clear,0,2014-01-30 04:55:00